Вернуться в каталог

GOES 5 AKM

АктивенMEO
NORAD 33521·ROCKET BODY·🇺🇸 United States

Запущен May 22, 1981 с Cape Canaveral Space Force Station

Loading…

Ближайшие Пролёты (ближайшие 24 часа)

TLE

СвежийSource: Space-Track

Эпоха: Sep 14, 2026, 07:55 UTC

1 33521U 81049D   26257.33028868 -.00000220  00000-0  00000-0 0  9991
2 33521  16.1033 317.1062 1708346 145.8697 266.0391  0.82272744 59332

Отслеживайте GOES 5 AKM в реальном времени с AllMySat

Download on the App Store